PPCAW SBNF-SBGR

Flight info

Callsign PPCAW
Flight time N/A
Altitude 25000
Route DCT UMDOR VIA UZ69 DCT XONUG VIA UZ121 DCT BUXUK
Aircraft BE9L/L-SDFGR/LS1

Departure

Time 2026-04-15 00:24
Airport Ministro Victor Konder International Airport (SBNF)

Arrival

Time N/A
Airport São Paulo/Guarulhos–Governor André Franco Montoro International Airport (SBGR)
Time Latitude Longitude Altitude Speed Heading
2026-04-15 00:10 -26.87935 -48.64795 16 ft 0 kts 351°
2026-04-15 00:14 -26.87916 -48.64797 16 ft 7 kts 356°
2026-04-15 00:14 -26.87895 -48.64817 16 ft 6 kts 255°
2026-04-15 00:15 -26.87883 -48.64855 17 ft 0 kts 323°
2026-04-15 00:19 -26.87882 -48.64856 17 ft 2 kts 322°
2026-04-15 00:19 -26.87839 -48.64890 18 ft 13 kts 324°
2026-04-15 00:19 -26.87777 -48.64829 18 ft 19 kts 55°
2026-04-15 00:20 -26.87691 -48.64688 20 ft 23 kts 56°
2026-04-15 00:20 -26.87579 -48.64510 19 ft 31 kts 54°
2026-04-15 00:20 -26.87511 -48.64370 18 ft 16 kts 90°
2026-04-15 00:20 -26.87506 -48.64387 18 ft 10 kts 251°
2026-04-15 00:21 -26.87516 -48.64406 19 ft 5 kts 235°
2026-04-15 00:21 -26.87518 -48.64409 19 ft 0 kts 234°
2026-04-15 00:22 -26.87526 -48.64422 19 ft 16 kts 234°
2026-04-15 00:23 -26.87701 -48.64702 20 ft 71 kts 235°
2026-04-15 00:23 -26.88075 -48.65312 17 ft 116 kts 236°
2026-04-15 00:23 -26.88567 -48.66151 180 ft 136 kts 236°
2026-04-15 00:23 -26.89091 -48.67055 583 ft 140 kts 235°
2026-04-15 00:24 -26.89650 -48.68007 900 ft 152 kts 234°
2026-04-15 00:24 -26.90297 -48.69048 928 ft 178 kts 233°
2026-04-15 00:24 -26.91059 -48.70237 916 ft 194 kts 234°
2026-04-15 00:24 -26.91831 -48.71498 1040 ft 196 kts 234°
2026-04-15 00:25 -26.92342 -48.72344 1098 ft 200 kts 235°
2026-04-15 00:25 -26.93383 -48.74063 1298 ft 201 kts 235°
2026-04-15 00:25 -26.94161 -48.75329 1678 ft 194 kts 234°
2026-04-15 00:25 -26.94887 -48.76556 2096 ft 184 kts 241°
2026-04-15 00:26 -26.94959 -48.77899 2524 ft 174 kts 300°
2026-04-15 00:26 -26.94081 -48.78695 2983 ft 160 kts 344°
2026-04-15 00:26 -26.93383 -48.78951 3276 ft 159 kts 346°
2026-04-15 00:26 -26.92331 -48.79313 3711 ft 157 kts 347°
2026-04-15 00:27 -26.91288 -48.79669 4143 ft 156 kts 347°
2026-04-15 00:27 -26.90249 -48.80028 4585 ft 158 kts 346°
2026-04-15 00:27 -26.89188 -48.80398 5031 ft 162 kts 346°
2026-04-15 00:27 -26.88100 -48.80777 5472 ft 165 kts 346°
2026-04-15 00:28 -26.86989 -48.81166 5890 ft 169 kts 347°
2026-04-15 00:28 -26.85854 -48.81564 6267 ft 172 kts 347°
2026-04-15 00:28 -26.84697 -48.81971 6636 ft 175 kts 347°
2026-04-15 00:28 -26.83519 -48.82386 6979 ft 179 kts 347°
2026-04-15 00:29 -26.82314 -48.82808 7313 ft 183 kts 346°
2026-04-15 00:29 -26.81083 -48.83238 7656 ft 186 kts 347°
2026-04-15 00:29 -26.79839 -48.83671 7985 ft 190 kts 347°
2026-04-15 00:29 -26.78581 -48.84107 8282 ft 193 kts 347°
2026-04-15 00:30 -26.77430 -48.84504 8549 ft 196 kts 347°
2026-04-15 00:30 -26.76211 -48.84925 8832 ft 198 kts 347°
2026-04-15 00:31 -26.76087 -48.84967 8861 ft 199 kts 347°